Theta_e
302 302 302 302 302 301 301 301 301 301 301 301 304 306 307 307 305 303 308 307 308 309 309 307 310 313 316 323 322 321 319 317 317 313 318 321 337 338 341 342 343 345 346 347 349 355 358
304 302 302 302 302 301 301 301 301 300 300 303 306 307 307 308 307 303 307 307 308 309 312 312 311 312 316 325 321 322 327 319 321 320 319 321 339 339 339 341 340 340 342 343 351 355 355
308 305 303 302 302 301 301 300 301 300 302 306 307 308 308 307 308 304 307 308 308 309 311 311 314 316 325 327 320 322 326 330 323 322 319 327 336 340 337 338 336 335 331 332 341 356 357
316 309 305 303 302 302 301 300 300 300 306 307 307 308 308 307 308 306 307 308 308 309 311 314 316 322 329 324 317 320 320 326 329 324 319 326 330 334 333 333 334 332 326 330 332 342 354
317 312 307 304 303 302 301 300 300 304 306 307 307 308 308 307 307 306 307 308 310 312 310 315 322 323 331 317 317 318 320 326 329 327 322 320 322 330 332 328 329 331 328 329 331 333 344
318 314 309 305 304 302 301 300 302 306 306 307 307 308 307 307 308 305 308 310 312 314 318 323 322 325 325 320 318 317 318 323 327 326 325 323 325 330 331 326 329 331 326 326 328 333 336
318 315 311 305 304 301 300 301 305 306 306 307 307 307 307 307 307 304 307 310 319 320 318 326 324 327 319 317 317 317 318 323 327 325 325 327 327 331 330 327 326 328 329 328 327 330 334
317 314 312 306 302 301 301 305 306 306 307 307 307 306 306 306 305 306 307 313 314 314 314 316 319 319 316 316 317 321 321 320 328 331 330 330 329 329 330 329 329 327 328 328 328 326 343
316 313 310 304 301 301 304 306 306 307 307 306 306 306 306 306 305 309 310 315 315 315 314 315 316 315 314 315 315 321 322 324 327 330 328 324 329 330 330 330 326 325 326 326 327 326 340
315 313 306 303 302 303 306 307 307 307 307 306 306 307 306 306 311 313 316 315 315 315 314 318 314 314 315 315 314 318 319 320 324 326 326 326 325 325 328 329 326 322 324 326 325 323 323
314 307 304 303 304 306 308 308 307 307 307 307 307 308 306 307 308 313 316 315 315 314 320 316 314 314 315 313 316 316 317 318 321 323 324 325 326 327 327 326 323 323 325 324 325 323 323
308 305 304 305 307 309 309 308 308 307 307 307 308 308 306 315 314 317 316 315 316 315 319 315 314 313 313 313 314 317 317 316 317 316 317 319 320 322 324 326 325 324 323 322 322 322 324
304 304 305 308 309 309 309 308 308 307 308 309 309 307 305 309 316 315 315 315 317 317 317 315 314 313 313 314 315 315 316 315 314 315 316 317 315 317 320 324 323 323 323 322 323 323 325
304 305 305 308 309 309 308 308 308 308 308 308 310 306 307 312 314 316 315 317 324 320 317 316 315 314 314 315 315 316 316 315 316 316 316 316 318 316 318 322 326 324 321 322 326 325 325
305 305 306 309 309 308 308 308 308 308 308 308 310 312 313 315 316 316 316 323 320 319 318 318 317 315 314 315 315 315 316 315 317 316 318 317 318 318 318 319 323 325 325 322 322 323 324
305 304 307 309 309 308 308 308 308 308 308 311 312 315 318 317 317 316 319 322 318 317 316 317 318 318 318 317 316 315 315 316 318 317 315 316 316 316 317 317 319 321 322 321 321 325 326
304 306 308 309 308 309 308 309 308 308 310 314 316 321 317 316 318 319 321 320 318 316 317 317 317 318 318 318 318 318 317 316 316 316 316 315 315 315 316 316 316 318 319 321 321 323 325
305 307 309 309 309 309 309 309 308 308 309 313 318 321 317 318 321 322 317 316 312 316 316 316 317 316 317 316 317 317 318 316 315 314 315 314 313 314 315 315 316 315 315 315 322 324 326
305 307 309 309 309 309 309 309 308 308 309 309 319 321 318 318 319 319 318 317 314 314 315 315 316 315 315 315 316 316 316 316 315 315 316 313 314 315 316 314 316 316 316 315 314 317 319
306 308 309 309 309 309 309 309 309 310 310 311 320 320 318 317 317 317 319 318 316 315 314 315 315 315 315 315 314 315 315 314 314 315 317 314 312 313 314 314 313 316 316 315 314 313 315
306 308 308 309 309 309 309 309 311 313 314 313 321 317 316 316 317 315 316 316 315 315 314 315 317 315 315 316 314 315 314 314 315 318 314 312 311 311 311 312 312 313 314 316 316 315 316
306 308 308 309 309 309 309 308 312 314 316 317 318 320 316 316 316 315 316 316 315 314 315 314 315 313 314 314 314 314 313 313 314 314 315 314 315 314 316 315 312 312 313 315 316 316 316
307 308 308 308 308 308 309 308 312 314 317 318 317 319 320 315 316 315 315 315 314 314 314 313 313 313 314 313 312 311 311 310 310 311 313 313 314 316 316 315 315 315 313 313 314 315 315
307 308 308 308 308 308 309 309 311 312 313 315 317 318 320 318 316 316 315 315 315 314 315 314 313 313 313 311 311 311 311 311 311 310 310 310 312 314 314 316 316 313 313 314 314 314 324
307 308 309 308 308 308 309 308 311 313 314 316 318 319 321 319 317 317 317 316 316 314 314 314 313 312 312 312 314 314 316 316 316 314 313 311 312 314 315 315 312 312 311 320 320 321 322
308 308 309 308 308 308 309 308 310 313 315 317 316 318 321 323 317 316 317 316 316 315 316 314 314 313 312 313 315 317 320 318 316 314 313 313 313 316 315 317 317 317 317 317 317 319 319
308 309 309 308 308 308 309 308 309 310 314 315 316 315 319 322 317 316 316 317 315 316 316 315 314 313 312 315 318 317 317 313 315 315 316 315 315 316 315 318 315 316 316 316 317 319 318
308 309 310 309 308 308 309 308 308 308 311 314 318 317 316 320 318 317 316 315 315 315 318 315 315 313 313 315 314 315 314 312 312 313 313 317 319 316 316 316 316 315 317 318 316 313 313
307 309 310 309 308 308 309 309 308 308 310 313 318 318 318 319 319 318 317 315 314 314 315 314 314 313 311 313 312 313 312 311 311 312 310 314 311 312 315 318 313 312 312 311 310 310 311
Wind_Speed
20 21 21 22 22 24 25 25 26 27 28 27 28 29 28 29 29 27 24 21 22 18 15 12 7 5 1 4 8 5 5 12 16 15 17 13 10 13 14 11 14 17 17 15 9 7 7
21 20 21 22 22 23 24 25 25 26 27 27 28 30 30 30 28 28 25 20 22 14 10 10 8 4 2 4 7 7 8 12 12 18 15 17 10 11 10 14 14 15 16 14 13 8 11
21 21 21 21 22 23 24 25 26 26 28 29 28 29 31 31 29 28 26 19 20 12 10 8 5 4 6 12 2 4 11 12 14 20 10 21 24 15 8 10 13 14 9 14 6 11 9
23 20 20 21 22 23 24 25 26 27 28 29 30 30 31 32 29 28 25 20 16 12 9 4 2 4 7 6 9 9 10 19 17 18 21 22 24 16 8 9 13 11 8 6 10 8 10
24 21 21 21 22 23 23 24 25 27 28 30 30 31 32 32 30 29 24 20 18 12 9 5 2 5 7 7 5 11 9 11 20 18 20 23 19 10 9 5 6 6 8 8 11 15 7
26 22 21 22 22 23 24 26 26 28 29 31 31 31 33 32 30 28 24 22 16 8 5 5 9 6 8 5 5 2 7 11 13 9 10 13 8 8 5 3 7 7 8 8 10 12 14
25 23 21 21 22 23 25 27 28 30 31 32 30 31 32 31 27 24 25 9 1 1 5 8 2 6 4 7 4 9 8 7 8 8 9 8 4 7 9 10 11 14 16 15 12 13 8
23 22 20 21 22 23 25 27 29 31 32 31 30 30 32 30 24 18 15 3 6 7 7 12 17 14 3 6 5 5 9 6 7 6 7 7 12 9 10 14 13 18 16 15 14 13 6
22 21 20 21 22 24 27 29 31 31 32 31 30 31 32 27 18 13 9 14 7 9 4 9 9 7 7 4 7 8 5 9 8 8 9 10 11 17 14 15 15 14 10 11 11 16 12
19 20 19 21 23 25 27 29 31 31 32 31 32 32 30 26 8 12 9 5 11 5 3 4 7 1 4 2 5 9 2 4 4 9 11 9 16 16 16 17 13 9 9 11 13 8 3
18 18 21 23 25 27 27 29 30 31 32 33 34 32 23 12 15 8 15 13 10 5 2 8 6 2 2 6 4 4 7 5 8 8 5 8 13 12 16 13 14 10 10 9 8 7 4
20 21 23 25 27 27 27 29 31 32 33 34 34 28 18 5 9 13 16 14 11 2 3 4 5 6 4 6 8 7 5 4 6 6 9 9 10 6 6 14 10 7 9 10 7 3 6
22 23 25 26 27 28 29 30 31 33 35 34 33 18 12 8 5 14 18 8 2 3 10 6 7 5 9 7 5 2 5 6 4 2 4 7 12 8 10 8 8 7 2 3 4 4 7
23 25 28 27 27 29 31 31 33 34 36 36 26 11 8 13 8 15 14 3 3 14 13 8 5 4 2 10 3 7 2 4 6 8 1 3 7 6 2 7 5 6 7 5 6 5 5
25 27 28 28 28 29 31 32 34 36 37 34 19 7 8 12 11 13 3 2 5 10 13 12 10 3 5 4 3 5 1 6 6 12 5 7 6 18 14 9 8 7 6 6 6 12 5
27 29 27 28 29 30 31 32 35 38 39 21 16 6 11 8 2 8 2 8 7 10 8 8 5 7 8 7 2 6 7 10 6 8 7 6 6 7 15 12 9 9 5 4 3 7 7
28 29 27 28 28 30 32 32 34 37 39 17 3 3 5 4 5 3 4 5 6 11 9 8 8 8 10 9 10 8 6 9 12 11 5 5 2 10 9 5 12 11 6 3 1 2 5
30 29 28 28 28 29 31 31 32 35 40 20 8 1 10 5 2 1 6 6 9 14 12 7 3 7 8 10 8 7 8 7 9 9 5 7 1 5 13 18 18 14 9 5 3 8 3
30 28 27 27 27 28 30 29 29 30 31 15 5 1 21 27 6 5 5 12 13 10 13 12 11 11 9 6 5 7 9 8 12 8 3 7 4 4 10 7 4 7 13 10 9 3 11
29 27 26 26 26 27 28 26 24 28 32 11 4 3 5 8 8 11 8 11 10 16 12 8 5 7 8 8 7 2 5 4 7 7 7 4 1 4 5 12 11 13 19 19 11 3 5
29 25 24 25 25 25 26 24 22 26 25 3 2 5 7 5 6 8 11 10 11 9 9 12 8 15 12 6 8 8 12 13 12 8 5 3 3 6 9 15 17 17 18 19 18 15 5
28 24 24 24 23 23 23 22 24 29 15 4 3 3 4 3 7 12 11 6 10 9 8 9 8 11 8 3 8 9 10 7 5 7 3 2 4 7 11 14 16 18 17 17 19 19 16
26 23 22 22 21 21 20 18 20 26 19 7 10 9 1 4 9 5 4 5 6 3 4 3 6 5 8 12 11 8 9 11 10 7 5 4 1 4 8 8 13 14 12 14 16 17 16
25 22 21 19 18 18 16 13 16 20 24 5 10 9 2 4 7 5 7 5 4 4 4 6 5 4 6 9 9 9 10 11 11 10 7 6 4 2 5 2 4 10 8 16 17 18 16
23 20 19 16 15 15 14 10 12 15 17 13 14 8 4 4 7 5 10 9 4 7 3 6 7 3 5 9 3 6 2 2 4 6 9 5 3 3 4 5 10 14 13 2 7 8 16
22 19 17 14 13 13 12 9 9 13 16 11 18 12 4 3 6 10 7 6 2 5 2 2 4 5 4 2 2 2 3 4 4 7 5 4 6 8 3 3 6 2 8 9 3 7 13
21 18 16 11 10 10 9 6 6 9 11 12 7 17 5 2 5 6 4 4 3 3 3 5 4 5 5 3 2 2 2 2 4 5 7 5 5 5 6 6 5 8 7 3 5 4 13
18 17 14 9 8 8 7 6 4 7 10 12 4 12 6 3 4 7 3 3 4 5 3 5 3 4 4 3 2 2 2 2 3 5 3 3 4 3 1 5 5 17 4 4 7 8 9
17 15 12 8 7 7 6 5 3 4 7 10 3 8 10 5 4 13 10 4 2 4 1 3 3 4 2 1 1 1 2 3 3 2 5 1 2 3 4 2 7 11 10 9 10 12 12
Wind_Direction
360 357 356 355 353 353 353 351 350 348 347 346 347 344 342 342 341 341 337 331 337 335 328 321 321 300 351 224 253 152 157 189 200 195 209 222 247 235 219 230 245 246 248 234 222 157 110
358 355 354 353 351 351 350 348 348 347 345 344 344 343 340 339 338 337 334 327 335 330 336 328 321 281 243 254 135 152 167 178 187 188 213 226 243 233 235 243 253 260 258 255 181 167 139
355 354 353 350 349 350 349 347 347 346 344 342 343 341 338 337 336 333 329 322 333 322 318 318 322 169 267 252 326 195 186 200 192 197 217 228 246 279 252 277 261 275 303 306 224 164 148
351 348 349 349 348 348 347 346 345 344 342 341 342 339 335 334 332 329 322 315 323 314 306 329 4 222 256 216 229 231 224 215 194 201 221 238 248 260 264 278 286 289 298 272 278 205 165
347 346 345 346 347 346 345 345 343 343 341 340 340 337 333 331 330 325 316 313 311 294 284 304 281 213 272 206 208 208 241 215 170 202 213 246 265 259 283 282 313 286 261 250 253 261 213
345 343 343 345 345 346 345 344 343 342 339 338 338 335 332 329 326 323 314 317 297 288 281 230 266 277 266 239 103 218 236 265 159 163 209 234 249 231 248 216 231 255 259 232 248 254 243
342 341 344 345 347 346 345 344 343 341 338 338 337 333 331 328 322 321 323 339 117 161 232 228 226 234 155 108 166 211 179 275 176 179 204 217 242 226 226 240 256 271 281 289 281 250 222
340 344 345 346 347 347 345 343 341 340 338 338 336 333 331 326 319 312 309 250 41 303 299 270 257 263 290 344 231 150 158 210 204 196 214 239 227 236 231 240 234 250 264 279 289 284 96
344 346 347 348 347 347 345 342 340 340 340 338 337 336 333 325 319 307 255 281 323 302 267 282 219 222 233 204 271 153 191 224 184 217 219 224 235 223 237 248 249 246 241 271 273 303 75
351 348 349 347 347 346 342 341 340 343 343 340 339 337 334 330 316 315 297 356 346 349 292 218 171 184 112 247 284 105 36 355 252 231 220 230 239 254 228 236 252 257 264 263 269 303 281
355 354 350 348 347 343 341 342 345 344 342 340 338 337 328 330 304 310 360 334 341 289 269 150 110 120 225 198 143 153 74 315 270 281 259 240 228 245 249 236 226 256 280 287 298 289 297
2 355 351 347 344 342 341 348 346 343 341 340 336 335 320 19 295 289 326 323 300 262 216 128 127 187 203 219 255 143 179 226 300 300 314 299 308 284 267 256 262 231 257 288 309 358 297
359 355 349 346 343 342 343 348 346 343 342 339 333 324 292 280 260 331 331 310 281 254 144 155 166 171 202 174 195 142 217 191 220 192 273 290 267 275 293 317 259 262 228 322 319 283 248
358 355 350 346 344 341 347 347 345 344 341 339 330 311 257 257 276 311 317 305 298 25 25 36 46 24 290 133 181 161 325 320 251 243 6 291 312 212 311 242 266 251 188 173 223 240 261
356 353 351 347 344 343 347 348 345 344 341 344 335 317 267 265 278 274 314 293 40 13 356 352 322 190 267 175 98 56 43 278 19 46 72 11 300 339 342 328 210 273 278 229 245 277 294
352 350 350 348 346 348 348 349 348 346 345 356 334 301 262 343 289 263 260 58 82 47 338 339 336 1 4 30 170 171 196 27 69 66 60 21 321 330 349 332 336 177 257 346 292 249 265
351 350 350 348 350 349 349 350 351 350 352 0 328 270 2 355 282 277 36 38 39 55 15 20 3 3 351 2 359 3 39 30 38 33 44 44 89 307 349 331 348 341 329 325 340 263 251
350 350 350 349 351 350 350 352 354 355 356 8 337 61 339 314 313 216 72 15 17 9 19 13 342 9 17 8 3 357 3 69 51 36 13 13 358 312 295 301 307 311 314 316 178 279 259
350 349 349 349 350 352 351 352 355 359 2 338 318 273 44 26 17 19 72 87 61 20 29 8 12 20 8 354 1 18 7 27 65 52 34 360 338 345 321 311 326 345 335 318 300 278 271
349 351 349 350 352 353 352 355 356 354 351 347 300 15 21 27 7 29 358 26 70 44 28 1 359 352 9 3 352 351 331 344 80 98 106 90 255 259 268 296 316 310 318 323 327 301 283
348 351 350 349 353 353 354 359 358 355 351 350 231 65 51 20 355 59 48 31 40 20 348 30 38 19 17 360 340 354 2 358 357 58 34 18 242 275 285 286 294 290 295 305 306 307 289
348 351 351 351 353 354 360 3 4 6 3 42 53 14 101 48 2 60 15 43 35 15 0 14 11 0 340 328 0 346 349 344 313 348 348 357 291 310 310 311 298 292 290 280 286 296 295
349 351 353 354 353 357 7 11 16 17 28 8 359 340 262 56 65 57 48 47 45 60 4 68 27 353 340 10 339 319 311 299 288 282 276 286 276 335 281 346 332 294 279 286 280 283 292
349 350 355 354 356 360 10 20 23 19 18 345 11 311 9 46 64 90 59 34 9 38 347 332 73 5 6 327 307 297 269 256 263 265 261 267 253 201 258 264 273 255 243 268 280 281 6
349 351 357 355 359 3 9 20 28 20 20 31 12 358 345 61 34 30 54 20 72 136 234 21 16 71 328 308 338 325 74 79 272 290 288 303 294 212 241 254 295 283 269 14 4 349 20
348 351 357 357 359 2 9 18 31 20 23 52 23 17 335 352 32 7 47 80 357 14 5 91 40 36 1 311 73 344 20 339 345 327 38 360 288 251 162 223 229 56 31 20 331 286 6
345 352 355 359 358 0 11 14 33 16 11 9 17 18 316 331 42 32 26 0 48 108 273 92 32 31 9 6 5 9 41 276 343 317 354 314 307 268 235 232 264 347 340 323 227 308 348
341 349 352 359 351 350 2 0 21 357 359 14 352 11 23 314 20 329 58 20 357 11 53 333 88 32 26 49 14 10 17 14 313 347 344 310 324 307 263 204 259 4 8 354 342 340 345
337 346 351 356 350 342 347 346 2 337 341 12 323 1 357 261 302 308 306 169 197 163 245 71 112 73 79 111 58 30 11 1 348 295 357 46 67 293 317 349 36 337 351 20 10 328 326